CAPE
0 0 0 0 0 0 0 0 0 0 0 0 0 0 0 0 0 0 0 0 0 0 0 0 0 0 0 0 0 0 0 0 0 0 0 0 0 0
0 0 0 0 0 0 0 0 0 0 0 0 0 0 0 0 0 0 0 0 0 0 0 0 0 0 0 0 0 0 0 0 0 0 0 0 0 0
0 0 0 0 0 0 0 0 0 0 0 0 0 0 0 0 0 0 0 0 0 0 0 0 0 0 0 0 0 0 0 0 0 0 0 0 0 0
0 0 0 0 0 0 0 0 0 0 0 0 0 0 0 0 0 0 0 0 0 0 0 0 0 0 0 0 0 0 0 0 0 0 0 0 0 0
0 0 0 0 0 0 0 0 0 0 0 0 0 0 0 0 0 0 0 0 0 0 0 0 0 0 0 0 0 0 0 0 0 0 0 0 0 0
0 0 0 0 0 0 0 0 0 0 0 0 0 0 0 0 0 0 0 0 0 0 0 0 0 0 0 0 0 0 0 0 0 0 0 0 0 0
0 0 0 0 0 0 0 0 0 0 0 0 0 0 0 0 1 3 5 6 1 0 0 0 0 0 0 0 0 0 0 0 0 0 0 0 0 0
0 0 0 0 0 0 0 0 0 0 0 0 0 0 0 0 0 3 5 5 4 2 5 1 0 0 0 0 0 0 0 0 0 0 0 0 0 0
0 0 0 0 0 0 0 0 0 0 0 6 2 0 0 0 2 2 4 9 4 2 4 4 0 0 0 0 0 0 0 0 0 6 1 0 0 0
0 0 0 0 0 0 0 0 0 0 0 0 0 4 11 6 10 11 9 0 0 0 0 3 0 0 0 0 0 0 0 0 0 0 0 1 0 1
0 0 0 0 0 0 0 0 0 0 0 0 0 1 2 5 8 3 0 0 0 0 0 10 0 4 0 0 0 0 0 0 0 0 0 0 0 0
0 0 0 0 0 2 5 3 0 0 0 0 0 0 0 0 0 0 0 1 1 1 3 8 3 8 8 1 2 0 0 0 0 0 0 0 0 0
0 0 0 0 0 10 10 4 1 7 4 0 0 0 0 0 0 0 0 0 1 1 1 8 1 4 2 3 3 4 3 0 0 0 0 0 0 0
0 0 0 0 4 3 3 0 1 1 0 0 0 0 0 0 0 0 0 0 1 1 0 4 3 4 4 2 1 0 0 0 1 1 0 0 0 0
0 0 2 2 0 0 0 0 0 0 0 0 0 0 0 0 0 0 0 0 0 0 0 0 0 1 6 4 2 2 3 0 1 2 6 3 3 4
0 0 0 2 0 0 0 0 0 0 0 0 0 0 0 0 0 0 0 1 0 0 0 0 0 0 0 1 2 1 1 1 1 3 2 0 2 2
4 1 0 0 0 0 0 0 0 0 0 0 1 1 0 1 1 0 0 1 1 1 1 0 0 0 0 0 0 0 0 0 0 1 1 1 1 0
3 0 0 0 0 0 0 0 0 0 1 1 1 0 0 0 0 0 2 1 0 1 0 0 0 0 0 0 0 0 0 0 1 1 0 1 0 0
0 0 0 0 0 0 0 0 0 1 5 3 2 0 0 0 0 1 1 1 1 1 0 0 1 1 0 0 0 0 0 0 0 0 0 0 0 1
0 0 0 0 0 0 0 0 1 0 0 1 0 1 0 0 1 1 1 0 1 0 0 0 0 0 0 1 1 0 0 0 0 1 0 1 0 0
0 0 0 0 1 0 0 0 0 0 2 0 1 0 0 0 0 0 0 0 0 0 0 0 0 1 0 1 1 0 0 0 0 0 0 0 0 0
0 0 0 1 0 0 1 1 1 0 0 0 1 1 1 1 1 0 0 1 0 0 0 0 0 0 0 1 0 1 1 0 0 1 0 0 0 0
1 1 1 1 0 1 1 1 0 0 0 0 1 0 1 1 0 0 1 0 1 0 0 0 0 0 0 0 0 1 0 0 0 0 0 0 0 0
CIN
0 0 0 0 0 0 0 0 0 0 0 0 0 0 0 0 0 0 0 0 0 0 0 0 0 0 0 0 0 0 0 0 0 0 0 0 0 0
0 0 0 0 0 0 0 0 0 0 0 0 0 0 0 0 0 0 0 0 0 0 0 0 0 0 0 0 0 0 0 0 0 0 0 0 0 0
0 0 0 0 0 0 0 0 0 0 0 0 0 0 0 0 0 0 0 0 0 0 0 0 0 0 0 0 0 0 0 0 0 0 0 0 0 0
0 0 0 0 0 0 0 0 0 0 0 0 0 0 0 0 0 0 0 0 0 0 0 0 0 0 0 0 0 0 0 0 0 0 0 0 0 0
0 0 0 0 0 0 0 0 0 0 0 0 0 0 0 0 0 0 0 0 0 0 0 0 0 0 0 0 0 0 0 0 0 0 0 0 0 0
0 0 0 0 0 0 0 0 0 0 0 0 0 0 0 0 0 0 0 0 0 0 0 0 0 0 0 0 0 0 0 0 0 0 0 0 0 0
0 0 0 0 0 0 0 0 0 0 0 0 0 0 0 0 -1 -1 -1 -1 -1 0 0 0 0 0 0 0 0 0 0 0 0 0 0 0 0 0
0 0 0 0 0 0 0 0 0 0 0 0 0 0 0 0 0 -1 -1 0 0 0 -1 -1 0 0 0 0 0 0 0 0 0 0 0 0 0 0
0 0 0 0 0 0 0 0 0 0 0 -2 -1 0 -1 -1 -1 -1 0 0 0 -1 -1 0 0 0 0 0 0 0 0 0 0 0 0 0 0 0
0 0 0 0 0 0 0 0 0 0 0 0 0 -5 -4 -5 -2 -1 0 -1 0 0 0 0 0 0 0 0 0 0 0 0 0 0 0 0 0 -6
0 0 0 0 0 0 0 0 0 0 0 0 0 -1 -4 -2 0 0 -1 0 0 0 -1 -1 0 -1 -2 0 0 0 0 0 0 0 0 0 0 0
0 0 0 0 0 -1 0 -2 -2 0 0 0 0 0 0 0 0 0 0 0 0 0 -1 -1 -2 0 0 0 0 0 0 0 0 0 0 0 0 0
0 0 0 0 0 0 -1 -1 0 -1 -1 0 0 0 0 0 0 0 0 0 0 0 0 0 0 -1 0 -1 0 0 0 0 0 0 0 0 0 0
0 0 0 0 -1 0 -1 0 0 0 0 0 0 0 0 0 0 0 0 0 0 0 0 0 0 0 0 0 0 0 -1 0 0 0 0 0 0 0
0 0 -1 -1 0 0 0 0 0 0 0 0 0 0 0 0 0 0 0 0 0 0 0 0 0 -5 0 0 0 0 0 0 0 0 0 0 0 0
0 0 0 -2 0 0 0 0 0 0 0 0 0 0 0 0 0 0 0 0 0 0 0 0 0 0 0 0 0 0 0 0 0 0 0 0 0 0
-1 -4 0 0 0 0 0 0 0 0 0 0 0 0 0 0 0 0 0 0 0 0 0 0 0 0 0 0 0 0 0 0 0 0 0 0 0 0
-2 0 0 0 0 0 0 -1 -1 0 0 0 0 0 0 -1 0 0 0 0 0 0 0 0 0 0 0 0 0 0 0 0 0 0 0 0 0 0
0 0 0 0 -1 0 0 -1 -1 -1 -1 -1 -1 -1 0 0 -1 0 0 0 0 0 0 0 0 0 0 0 0 0 0 0 0 0 0 0 0 0
0 0 0 -1 0 0 0 0 0 0 0 -1 -1 0 -1 0 0 0 0 0 0 0 0 0 0 0 0 0 0 0 0 0 0 0 0 0 0 0
0 0 0 0 0 0 0 0 0 0 -1 0 -1 -1 0 0 0 0 0 0 0 0 0 0 0 0 0 0 0 0 0 0 0 0 0 0 0 0
-1 0 0 0 -1 0 0 0 0 0 0 0 0 0 0 0 0 0 0 0 0 0 0 0 0 0 0 0 0 0 0 0 0 0 0 0 0 0
0 0 0 0 0 0 0 0 0 0 0 0 0 0 0 0 0 0 0 0 0 0 0 0 0 0 0 0 0 0 0 0 0 0 0 0 0 0
Wind_Speed
22 23 23 24 24 25 26 26 29 33 32 26 27 26 34 36 37 37 37 38 38 39 40 40 41 41 42 42 41 41 40 39 37 35 34 32 32 31
22 23 24 25 25 26 27 27 27 30 34 30 31 35 36 37 37 38 39 41 41 42 42 43 44 45 44 43 43 43 42 41 39 37 36 34 33 32
23 23 25 26 27 27 28 28 29 30 36 37 36 38 38 40 41 40 41 41 41 42 43 45 46 46 46 46 45 45 44 43 42 41 38 37 35 34
23 25 26 27 28 29 30 31 32 32 35 41 41 41 43 43 43 44 42 41 41 41 43 44 46 44 44 44 45 46 45 45 45 43 41 40 38 36
25 27 29 30 31 32 32 33 34 34 36 39 43 41 42 43 46 45 45 45 44 44 44 45 44 44 46 46 46 46 46 46 45 44 43 42 41 39
27 29 30 31 33 34 34 34 35 37 38 40 43 44 42 43 43 46 48 46 47 46 45 44 44 46 46 46 46 46 46 46 46 45 45 44 43 42
29 30 31 32 33 33 34 36 37 38 40 42 44 44 45 45 47 46 48 48 47 45 46 44 46 46 45 45 45 46 46 47 47 47 47 46 46 44
31 32 32 33 34 35 35 36 37 39 41 41 42 45 45 44 44 46 47 49 51 41 44 49 45 47 45 44 45 46 46 48 48 48 48 48 47 45
31 33 34 34 35 36 36 37 36 35 35 38 41 42 43 43 44 47 47 48 49 48 48 51 46 48 44 43 42 43 45 45 44 44 46 48 48 46
31 33 35 36 36 37 37 37 36 35 35 35 36 38 38 38 41 43 45 47 46 46 43 49 46 47 44 42 41 43 39 40 43 45 45 46 47 47
33 33 34 35 36 36 36 37 37 36 34 34 35 36 37 38 40 42 44 46 49 47 42 42 44 45 44 44 41 39 39 42 43 45 44 45 46 47
33 33 34 34 35 34 36 36 38 38 37 36 35 36 37 38 39 37 38 41 42 45 38 40 42 42 43 40 38 38 40 41 43 44 45 46 44 43
34 35 34 34 34 34 35 34 35 36 35 35 36 36 36 35 35 33 32 33 36 38 37 37 39 40 38 42 40 38 39 39 41 43 44 44 41 41
35 34 34 34 35 34 33 33 33 33 33 33 34 34 34 34 33 32 31 29 27 29 32 32 32 35 38 41 43 38 38 40 38 42 42 41 40 40
33 33 34 33 33 32 32 31 32 30 31 32 33 33 32 31 30 30 29 28 26 25 24 26 27 29 30 36 41 38 41 41 39 38 40 35 35 35
33 32 32 31 31 32 31 29 29 29 30 31 32 31 30 29 29 29 30 29 27 27 24 21 21 23 28 30 34 39 39 38 39 39 38 33 32 29
33 31 31 31 32 30 30 30 29 29 30 30 30 31 30 29 28 28 28 28 29 30 29 27 26 24 19 16 30 34 36 36 35 36 34 30 27 23
31 31 32 32 31 30 30 30 29 30 29 30 30 30 29 28 28 26 24 26 29 28 28 28 31 31 28 26 13 23 32 32 32 31 28 23 17 15
30 31 31 30 29 28 29 29 30 30 29 27 27 27 26 26 27 27 26 26 26 26 24 24 27 29 33 34 28 18 30 32 30 28 23 18 14 14
29 29 29 29 29 29 29 30 30 29 27 28 26 26 25 24 24 24 24 23 24 24 22 22 22 23 26 30 30 32 8 28 27 25 23 21 19 18
28 28 28 28 28 28 29 28 28 28 28 29 27 25 23 21 21 22 21 21 22 22 21 20 19 17 20 25 23 27 23 20 21 22 22 20 20 20
27 28 27 27 27 27 26 26 26 27 27 27 26 25 24 21 20 20 20 20 19 18 17 18 18 18 19 19 25 28 27 18 20 20 22 22 21 22
27 27 27 26 26 25 25 25 25 26 26 27 27 27 26 23 20 19 18 16 14 13 13 15 16 16 15 14 17 22 21 20 17 20 22 23 25 25
Wind_Direction
341 341 340 339 337 334 332 330 327 322 322 326 324 327 323 322 321 321 320 320 319 318 318 317 316 315 314 313 312 313 313 315 316 318 320 321 321 320
340 340 339 338 336 334 332 330 327 322 317 322 321 320 321 320 321 320 318 317 316 316 315 314 313 312 311 311 310 309 309 309 310 311 313 314 314 314
341 340 338 337 335 334 333 330 327 323 316 317 318 319 319 318 317 317 317 316 315 315 315 314 313 311 309 307 307 306 305 304 304 304 305 306 307 307
340 338 336 336 334 333 330 327 325 324 320 316 317 317 317 318 317 316 316 316 315 315 314 314 314 313 312 311 308 306 303 302 301 299 299 299 300 300
336 334 332 332 330 329 328 326 324 323 321 318 316 319 318 318 316 316 315 314 314 315 314 313 313 312 311 309 308 306 304 301 300 298 295 294 294 293
333 333 331 330 328 327 326 325 324 322 320 319 318 318 319 319 318 316 314 315 313 314 314 313 312 311 310 309 308 307 304 301 298 296 294 292 290 288
332 331 331 330 329 328 326 324 323 321 319 318 318 318 318 318 317 317 315 316 315 316 314 314 313 312 311 309 308 307 305 302 298 295 292 290 287 284
330 331 331 331 330 328 326 325 323 321 318 319 319 319 319 320 320 318 317 316 314 319 315 312 314 311 311 309 307 306 304 302 299 295 292 288 285 282
331 330 330 330 328 327 326 325 325 325 323 321 319 321 321 321 320 318 317 315 314 315 314 310 312 309 312 311 310 308 306 304 302 298 295 290 283 280
331 330 329 329 329 328 327 326 326 326 325 325 323 321 322 323 320 319 318 316 315 316 317 311 313 310 312 311 311 309 308 306 304 302 297 292 285 277
330 331 330 329 329 330 328 327 327 327 328 327 325 324 324 324 323 322 319 318 316 317 319 315 315 313 313 310 310 309 306 305 303 301 298 293 286 279
330 330 331 330 330 331 328 328 327 327 328 329 329 328 328 327 326 326 324 321 320 319 324 319 317 318 313 314 313 311 309 306 303 300 296 293 286 281
328 329 331 332 331 331 330 329 329 330 331 331 330 330 331 332 333 333 332 329 325 322 325 325 321 319 317 314 313 312 310 308 306 302 297 292 286 280
328 329 330 330 330 331 331 331 331 331 332 332 333 334 335 336 338 339 338 336 334 330 329 328 324 321 318 315 310 313 311 310 310 305 301 293 284 280
331 331 331 331 332 332 332 331 331 332 332 333 333 334 336 338 339 340 341 342 342 341 341 338 332 329 325 317 311 312 309 310 311 309 303 294 286 280
332 333 333 333 333 332 332 332 332 332 332 332 333 336 339 341 341 342 341 341 341 342 345 346 345 339 329 325 318 310 313 310 309 310 301 294 287 278
333 335 334 334 333 333 334 334 334 333 332 334 335 338 340 341 341 342 341 341 339 338 338 340 343 343 342 336 325 318 310 310 308 309 303 291 288 278
336 335 334 334 333 333 333 333 334 334 334 335 336 338 340 343 343 345 345 342 341 341 340 339 337 334 338 338 344 332 313 310 302 304 312 294 292 300
335 335 335 336 336 336 335 333 332 334 335 337 338 341 344 347 346 347 347 346 345 345 344 343 341 335 327 328 336 349 313 304 301 299 305 295 295 289
337 336 337 337 337 336 336 334 333 335 337 337 339 342 346 349 350 350 350 349 348 348 348 348 348 344 333 328 330 301 346 300 302 300 299 286 289 287
339 339 339 339 338 338 336 336 336 336 338 337 339 342 347 351 351 351 350 350 350 351 350 351 352 351 344 336 338 328 344 326 307 298 295 299 296 291
340 340 340 339 340 339 340 340 340 339 339 340 339 339 344 349 350 351 351 351 352 351 350 351 354 355 351 346 331 323 332 343 315 301 288 289 295 293
342 342 342 343 343 343 343 343 343 341 341 340 339 338 340 345 348 350 350 351 349 349 354 355 359 360 359 358 346 335 338 347 339 315 300 292 289 292